Regional Weather Roundup
Issued by NWS

Home | Current Version | Previous Version | Text Only | Print | Product List | Glossary Off
Versions: 1 2 3 4 5 6 7 8 9 10 11 12 13 14 15 16 17 18 19 20 21 22 23 24 25 26 27 28 29 30 31 32 33 34 35 36 37 38 39 40 41 42 43 44 45 46 47 48 49 50

000
ASUS43 KMPX 181510
RWRMN
WEATHER ROUNDUP FOR MINNESOTA
NATIONAL WEATHER SERVICE TWIN CITIES/CHANHASSEN MN
900 AM CST MON DEC 18 2017


NOTE: "FAIR" INDICATES FEW OR NO CLOUDS BELOW 12,000 FEET WITH NO
SIGNIFICANT WEATHER AND/OR OBSTRUCTIONS TO VISIBILITY. N/A MEANS
CURRENT SKY AND/OR WEATHER CONDITIONS ARE NOT AVAILABLE.

MNZ060>063-068>070-181600-
   Twin Cities Metro

CITY           SKY/WX    TMP DP  RH WIND       PRES   REMARKS
TWIN CITIES    CLOUDY    29  26  89 S6        29.79F WCI  23
ST PAUL        CLOUDY    27  26  96 SE7       29.81F FOG     WCI  19
CRYSTAL        CLOUDY    29  23  78 S7        29.77F HAZE    WCI  22
BLAINE         CLOUDY    30  28  93 S8        29.76F FOG     WCI  23
LAKEVILLE      CLOUDY    27  27 100 S8        29.79F FOG     WCI  18
EDEN PRAIRIE   MOCLDY    29  25  85 S9        29.77F FOG     WCI  20
SOUTH ST PAUL  CLOUDY    28  27  93 S5        29.80F FOG     WCI  23
LAKE ELMO      CLOUDY    28  27  93 S9        29.80F FOG     WCI  20
$$
MNZ001>005-007-008-013>017-022>024-027-028-181600-
   Northwest Minnesota

CITY           SKY/WX    TMP DP  RH WIND       PRES   REMARKS
BEMIDJI        CLEAR     27  26  96 S5        29.59S FOG     WCI  22
HALLOCK        MIX PCPN  32  30  93 S14       29.52S WCI  22
ROSEAU         MOCLDY    30  27  86 SW13      29.51S WCI  20
WARROAD        CLOUDY    30  27  86 SW12      29.51R WCI  21
THIEF RVR FALL MOCLDY    28  25  88 SW16      29.56F WCI  16
CROOKSTON      CLOUDY    28  27  93 SW13      29.59R WCI  18
FOSSTON        CLOUDY    25  25 100 S12       29.59S WCI  14
DETROIT LAKES  CLOUDY    30  28  93 S8        29.63S WCI  23
MOORHEAD       CLOUDY    27  25  93 CALM      29.63F
PARK RAPIDS    CLOUDY    26  24  92 SW7       29.61F WCI  18
MAHNOMEN       FAIR      26  24  94 S15       29.60S WCI  13
$$
MNZ006-009>011-018-025>026-181600-
   North Central Minnesota

CITY           SKY/WX    TMP DP  RH WIND       PRES   REMARKS
BAUDETTE       MOCLDY    29  27  92 SW7       29.51S WCI  22
FLAG ISLAND    CLOUDY    27  25  93 SW10      29.46F WCI  17
INTL FALLS     CLOUDY    30  27  88 SW10      29.54F FOG     WCI  21
WASKISH        PTCLDY    30  28  93 S7        29.56S WCI  23
BIG FORK       CLOUDY    30  27  86 SW10G18   29.59S FOG     WCI  21
LONGVILLE      CLOUDY    27  25  93 S7        29.64F FOG     WCI  19
GRAND RAPIDS   CLOUDY    24  22  91 S9        29.65F FOG     WCI  14
CRANE LAKE     CLOUDY    28  27  93 S7G16     29.60S WCI  21
ORR            CLOUDY    28  25  86 S9G17     29.57F WCI  20
COOK           CLOUDY    27  25  93 SW8       29.61F WCI  18
WALKER         PTSUNNY   27  25  93 SW10      29.61F WCI  17
$$
MNZ012-019>021-037-181600-
   Northeast Minnesota

CITY           SKY/WX    TMP DP  RH WIND       PRES   REMARKS
DULUTH         CLOUDY    24  24 100 SW14      29.66F FOG     WCI  12
ELY            CLOUDY    27  27 100 SW9       29.60F FOG     WCI  17
HIBBING        CLOUDY    22  21  96 S6        29.63F FOG     WCI  14
EVELETH        CLOUDY    24  20  85 SW7       29.65F FOG     WCI  16
DULUTH HARBOR  MOCLDY    27  25  93 SW7       29.72F FOG     WCI  19
TWO HARBORS    CLOUDY    28  25  86 SW7       29.66F HAZE    WCI  21
SILVER BAY     CLOUDY    27  25  93 SW6       29.65F FOG     WCI  20
GRAND MARAIS     N/A     34  31  88 SW25      29.68F WCI  21
G MARAIS ARPRT FOG       25  21  86 S3        29.62S VSB 1/4
$$
MNZ029>031-032-039>041-046>048-054>057-064-181600-
   West Central Minnesota

CITY           SKY/WX    TMP DP  RH WIND       PRES   REMARKS
FERGUS FALLS   CLOUDY    27  27 100 S7        29.69S WCI  19
WHEATON        CLOUDY    30  25  80 S8        29.69F WCI  23
MORRIS         CLOUDY    28  27  93 SW10      29.68F WCI  19
ALEXANDRIA     CLOUDY    29  26  89 SW12      29.68F WCI  19
ELBOW LAKE     FAIR      27  26  96 SW9       29.68F WCI  17
WADENA         CLOUDY    25  25 100 S6        29.64F WCI  18
GLENWOOD       CLOUDY    27  27 100 S9        29.70S WCI  17
APPLETON       CLOUDY    30  27  86 SW7       29.71F WCI  23
BENSON         CLOUDY    30  27  86 W8        29.73S WCI  23
ORTONVILLE     CLOUDY    30  27  86 SW5       29.70F WCI  25
MADISON        CLOUDY    34  28  80 SW7       29.73F WCI  28
WILLMAR        FAIR      28  27  93 SW5       29.75S WCI  23
$$
MNZ033>034-036-042>043-049>051-058-059-181600-
   Central Minnesota

CITY           SKY/WX    TMP DP  RH WIND       PRES   REMARKS
ST CLOUD       CLOUDY    25  23  92 S8        29.72F WCI  16
SAUK CENTRE    FAIR      28  25  88 SW8       29.70F WCI  20
PAYNESVILLE    CLOUDY    29  28  93 SW9       29.73R WCI  21
AITKIN         CLOUDY    23  21  93 S5        29.67S FOG     WCI  17
PINE RIVER     CLOUDY    19  18  93 SE3       29.70S FOG
BRAINERD       CLOUDY    27  23  85 SW9       29.69S FOG     WCI  18
STAPLES        CLOUDY    28  27  93 S8        29.66F WCI  20
LONG PRAIRIE   FAIR      28  25  86 S7        29.68F WCI  21
LITTLE FALLS   CLOUDY    27  23  86 CALM      29.71S
LITCHFIELD     CLOUDY    30  28  93 S5        29.74F WCI  25
BUFFALO        CLEAR     29  26  88 S7        29.76F WCI  22
MAPLE LAKE     CLOUDY    29  28  95 S7        29.75F FOG     WCI  22
HUTCHINSON     CLOUDY    30  27  88 S7        29.77F WCI  23
$$
MNZ037-044-045-052-053-181600-
   East Central Minnesota

CITY           SKY/WX    TMP DP  RH WIND       PRES   REMARKS
PRINCETON      CLEAR     28  27  93 S5        29.74S WCI  23
MORA             N/A     25  23  93 S3        29.74F FOG
CAMBRIDGE      CLEAR     28  27  93 S8        29.74F FOG     WCI  20
RUSH CITY      MOCLDY    26  24  92 S8        29.74F FOG     WCI  18
MOOSE LAKE     CLOUDY    27  23  86 S8        29.69F FOG     WCI  18
HINCKLEY       CLOUDY    27  27 100 S5        29.73F FOG     WCI  21
CLOQUET        CLOUDY    25  23  93 S9        29.68F FOG     WCI  15
MCGREGOR       CLEAR     27  25  93 S8        29.68F WCI  18
$$
MNZ071>073-080-081-089-090-097-098-181600-
   Southwest Minnesota

CITY           SKY/WX    TMP DP  RH WIND       PRES   REMARKS
MONTEVIDEO     CLOUDY    28  27  93 W8        29.73F WCI  20
GRANITE FALLS  CLOUDY    31  28  89 S9        29.76S WCI  23
CANBY          CLOUDY    33  28  82 SW10      29.75S WCI  25
MARSHALL       PTCLDY    32  27  81 SW16      29.76S WCI  21
REDWOOD FALLS  CLOUDY    30  26  85 SW13      29.76F WCI  20
OLIVIA         CLOUDY    30  28  93 SW9       29.75S WCI  22
PIPESTONE      CLOUDY    27  25  93 SW7       29.78S WCI  19
WINDOM           N/A     27  16  63 SW12      29.79S WCI  16
WORTHINGTON    CLOUDY    27  25  92 SW13      29.80F WCI  16
JACKSON        CLOUDY    27  23  86 SW13      29.81F WCI  16
TRACY          CLOUDY    30  28  93 SW14      29.77S WCI  20
SLAYTON        CLOUDY    27  25  93 SW13      29.79S WCI  16
$$
MNZ065>067-074>077-082>085-091>093-181600-
   South Central Minnesota

CITY           SKY/WX    TMP DP  RH WIND       PRES   REMARKS
MANKATO        CLOUDY    25  23  92 S8        29.82S FOG     WCI  16
NEW ULM        CLOUDY    28  25  86 SW9       29.79F WCI  20
ST JAMES       CLOUDY    27  25  93 S9        29.81F WCI  17
FAIRMONT       CLOUDY    28  24  85 SW12      29.83F WCI  18
GLENCOE        CLEAR     29  29 100 S8        29.77S FOG     WCI  21
FARIBAULT      CLOUDY    27  25  93 S8        29.82S FOG     WCI  18
OWATONNA       PTCLDY    27  25  93 S10       29.81F FOG     WCI  17
WASECA         CLOUDY    27  23  86 S9        29.83F FOG     WCI  17
ALBERT LEA     CLOUDY    25  25 100 S5        29.84S FOG     WCI  19
$$
MNZ078>079-086>088-094>096-181600-
   Southeast Minnesota

CITY           SKY/WX    TMP DP  RH WIND       PRES   REMARKS
ROCHESTER      FOG       27  27 100 S13       29.84F VSB 1/4 WCI  16
RED WING       CLOUDY    28  25  86 S6        29.82F FOG     WCI  22
STANTON        CLOUDY    28  25  89 S10       29.81S FOG     WCI  19
DODGE CENTER   FOG       27  27 100 S6        29.83S VSB 1/2 WCI  20
WINONA           N/A     32  28  86 SW3       29.88F
AUSTIN         FOG       27  25  93 SW8       29.86S VSB 1/4 WCI  18
PRESTON        FOG       26  25  96 SW8       29.87F VSB 3/4 WCI  18
$$
ABBREVIATIONS USED IN REMARKS
   TC - TEMPERATURES IN CELSIUS
  WCI - WIND CHILL INDEX
   HX - HEAT INDEX
  VSB - VISIBILITY
$$



USA.gov is the U.S. government's official web portal to all federal, state and local government web resources and services.